STARLINK-34316, 64707

Orbit data source: Space-Track

STARLINK-34316, 64707 is a payload satellite owned by SpaceX/Seattle (US) in LEO that was launched on Sat, 28 Jun 2025 UTC via an FALCON 9 launch vehicle from the Air Force Western Test Range (AFWTR). Payload-class satellites include a variety of spacecraft equipped with specific instruments for various scientific and technological missions. These include communications satellites like Starlink; space stations such as the ISS; scientific satellites like the Hubble; Earth observation satellites from companies like Planet Labs, Umbra, and HawkEye 360; GPS; miniature CubeSats for education and research; and military/defense satellites.

Loading next visibility...
Identifier
64707, 2025-142M
Orbit
LEO
Country
Flag of USUS
Related business
Manufacturer
SpaceX/Seattle
Mission
Operational Commercial Communications
Bus & Motor
STARLINK V2MO, Unknown motor
Mass
575 kg wet, ~530 kg dry
Launch date (UTC)
2025-06-28 (11 months ago)
Launch vehicle
FALCON 9
Launch site
Air Force Western Test Range (AFWTR)
Object type
Payload
Rocket body
Debris
Shape & HBR
Box + 2 Pan, 17.7 m
Radar Cross Section
36.964 m², Large (>1 m²)

Expand to show TLE details & history
Last TLE update: 11 hours ago

TLE from 11 hours ago
0 STARLINK-34316
1 64707U 25142M   26145.34211408  .00003009  00000-0  25982-3 0  9990
2 64707  69.9999 121.1443 0004367 261.7997  98.2667 14.98335488 51135
Epoch: 2026-05-25T08:12Z
TLE epoch observation values (Epoch: 2026-05-25T08:12:38.656Z)
Latitude
-0.00001°
Longitude
115.05194°
Altitude
574.901 km
Speed
7.573 km/s
True Right ascension
08h 04m 34s
True Declination
0° 00' 00"
Sunlit
Object was in daylight at epoch
Visualization orbit readout
Latitude
Unknown
Longitude
Unknown
Altitude
Unknown
Speed
Unknown
Apparent Right ascension
Unknown
Apparent Declination
Unknown
Sunlit
N/A
Visualization observer readout
Local Sidereal Time
03:58:29
Azimuth
Unknown
Elevation
Unknown
Doppler factor
Unknown
Orbital elements
Apogee altitude
573.021 km
Perigee altitude
566.953 km
Semi-major axis
6,948.124 km
Eccentricity
0.00044
Inclination
69.9999°
RAAN
121.1443°
Arg. of periapsis
261.7997°
True anomaly
98.31622°
Mean anomaly
98.2667°
Eccentric anomaly
98.29146°
Mean motion
3.7475 °/min
Orbital period
96.06 mins
BSTAR
0.00025982
Loading maneuver chart data...
Computing Atmospheric mass density...
Loading historical data...
Loading historical data...
Loading historical data...
Loading historical data...
Loading historical data...
Loading historical data...
Loading historical data...

Documentation

Showing up to 5 results
|